Time,TemperatureF,DewpointF,PressureIn,WindDirection,WindDirectionDegrees,WindSpeedMPH,WindSpeedGustMPH,Humidity,HourlyPrecipIn,Conditions,Clouds,dailyrainin,SoftwareType,DateUTC
2013-03-23 00:02:00,26.0,22.0,30.16,North,4,0.0,0.0,86,0.00,,,0.00,,2013-03-23 05:02:00,
2013-03-23 00:12:00,26.0,22.0,30.16,North,4,0.0,0.0,86,0.00,,,0.00,,2013-03-23 05:12:00,
2013-03-23 00:22:00,25.0,22.0,30.14,North,4,0.0,0.0,87,0.00,,,0.00,,2013-03-23 05:22:00,
2013-03-23 00:32:00,24.0,21.0,30.14,NNE,22,0.0,0.0,88,0.00,,,0.00,,2013-03-23 05:32:00,
2013-03-23 00:42:00,24.0,21.0,30.14,NNE,22,0.0,0.0,88,0.00,,,0.00,,2013-03-23 05:42:00,
2013-03-23 00:52:00,24.0,21.0,30.14,NNE,22,0.0,0.0,88,0.00,,,0.00,,2013-03-23 05:52:00,
2013-03-23 01:02:00,25.0,22.0,30.14,ENE,66,0.0,1.0,88,0.00,,,0.00,,2013-03-23 06:02:00,
2013-03-23 01:12:00,25.0,22.0,30.14,ENE,66,0.0,1.0,88,0.00,,,0.00,,2013-03-23 06:12:00,
2013-03-23 01:22:00,25.0,22.0,30.13,ENE,63,1.0,2.0,88,0.00,,,0.00,,2013-03-23 06:22:00,
2013-03-23 01:32:00,25.0,22.0,30.12,ENE,70,1.0,2.0,88,0.00,,,0.00,,2013-03-23 06:32:00,
2013-03-23 01:42:00,25.0,22.0,30.12,ENE,70,1.0,2.0,88,0.00,,,0.00,,2013-03-23 06:42:00,
2013-03-23 01:52:00,24.0,21.0,30.14,East,86,0.0,1.0,87,0.00,,,0.00,,2013-03-23 06:52:00,
2013-03-23 02:02:00,24.0,21.0,30.14,East,86,0.0,1.0,88,0.00,,,0.00,,2013-03-23 07:02:00,
2013-03-23 02:12:00,24.0,21.0,30.14,East,86,0.0,1.0,88,0.00,,,0.00,,2013-03-23 07:12:00,
2013-03-23 02:22:00,23.0,20.0,30.14,East,86,0.0,1.0,88,0.00,,,0.00,,2013-03-23 07:22:00,
2013-03-23 02:32:00,23.0,20.0,30.16,East,86,0.0,0.0,89,0.00,,,0.00,,2013-03-23 07:32:00,
2013-03-23 02:42:00,23.0,20.0,30.16,East,86,0.0,0.0,89,0.00,,,0.00,,2013-03-23 07:42:00,
2013-03-23 02:52:00,22.0,20.0,30.16,East,86,0.0,0.0,90,0.00,,,0.00,,2013-03-23 07:52:00,
2013-03-23 03:02:00,23.0,21.0,30.17,NW,310,0.0,1.0,91,0.00,,,0.00,,2013-03-23 08:02:00,
2013-03-23 03:12:00,23.0,21.0,30.17,NW,310,0.0,1.0,91,0.00,,,0.00,,2013-03-23 08:12:00,
2013-03-23 03:22:00,24.0,22.0,30.17,NW,308,0.0,1.0,91,0.00,,,0.00,,2013-03-23 08:22:00,
2013-03-23 03:32:00,24.0,22.0,30.19,WNW,293,0.0,1.0,91,0.00,,,0.00,,2013-03-23 08:32:00,
2013-03-23 03:42:00,24.0,22.0,30.19,WNW,293,0.0,1.0,91,0.00,,,0.00,,2013-03-23 08:42:00,
2013-03-23 03:52:00,25.0,23.0,30.18,NNW,342,0.0,1.0,91,0.00,,,0.00,,2013-03-23 08:52:00,
2013-03-23 04:02:00,25.0,23.0,30.19,West,269,0.0,1.0,91,0.00,,,0.00,,2013-03-23 09:02:00,
2013-03-23 04:12:00,25.0,23.0,30.19,West,269,0.0,1.0,91,0.00,,,0.00,,2013-03-23 09:12:00,
2013-03-23 04:22:00,25.0,23.0,30.19,West,269,0.0,1.0,91,0.00,,,0.00,,2013-03-23 09:22:00,
2013-03-23 04:33:00,25.0,23.0,30.18,NW,325,0.0,2.0,91,0.00,,,0.00,,2013-03-23 09:33:00,
2013-03-23 04:42:00,25.0,23.0,30.18,NW,325,0.0,2.0,91,0.00,,,0.00,,2013-03-23 09:42:00,
2013-03-23 04:52:00,25.0,23.0,30.17,North,349,2.0,4.0,91,0.00,,,0.00,,2013-03-23 09:52:00,
2013-03-23 05:03:00,25.0,22.0,30.16,NNW,331,2.0,4.0,90,0.00,,,0.00,,2013-03-23 10:03:00,
2013-03-23 05:13:00,25.0,22.0,30.16,NNW,331,2.0,4.0,90,0.00,,,0.00,,2013-03-23 10:13:00,
2013-03-23 05:23:00,25.0,23.0,30.16,NE,34,2.0,3.0,91,0.00,,,0.00,,2013-03-23 10:23:00,
2013-03-23 05:33:00,25.0,22.0,30.15,NE,37,1.0,3.0,90,0.00,,,0.00,,2013-03-23 10:33:00,
2013-03-23 05:42:00,25.0,22.0,30.15,NE,37,1.0,3.0,90,0.00,,,0.00,,2013-03-23 10:42:00,
2013-03-23 05:52:00,25.0,22.0,30.15,NNE,33,2.0,4.0,90,0.00,,,0.00,,2013-03-23 10:52:00,
2013-03-23 06:03:00,25.0,22.0,30.15,NNE,24,1.0,3.0,89,0.00,,,0.00,,2013-03-23 11:03:00,
2013-03-23 06:12:00,25.0,22.0,30.15,NNE,24,1.0,3.0,89,0.00,,,0.00,,2013-03-23 11:12:00,
2013-03-23 06:22:00,25.0,22.0,30.15,NE,53,2.0,4.0,89,0.00,,,0.00,,2013-03-23 11:22:00,
2013-03-23 06:32:00,25.0,22.0,30.14,NNE,30,2.0,4.0,89,0.00,,,0.00,,2013-03-23 11:32:00,
2013-03-23 06:42:00,25.0,22.0,30.14,NNE,30,2.0,4.0,89,0.00,,,0.00,,2013-03-23 11:42:00,
2013-03-23 06:51:00,25.0,22.0,30.18,NW,312,2.0,4.0,90,0.00,,,0.00,,2013-03-23 11:51:00,
2013-03-23 07:02:00,24.0,22.0,30.18,North,360,4.0,6.0,90,0.00,,,0.00,,2013-03-23 12:02:00,
2013-03-23 07:13:00,24.0,22.0,30.18,North,360,4.0,6.0,90,0.00,,,0.00,,2013-03-23 12:13:00,
2013-03-23 07:22:00,24.0,22.0,30.18,North,355,3.0,5.0,91,0.00,,,0.00,,2013-03-23 12:22:00,
2013-03-23 07:33:00,24.0,22.0,30.19,North,349,2.0,4.0,91,0.00,,,0.00,,2013-03-23 12:33:00,
2013-03-23 07:42:00,24.0,22.0,30.19,North,349,2.0,4.0,91,0.00,,,0.00,,2013-03-23 12:42:00,
2013-03-23 07:52:00,24.0,22.0,30.20,North,356,3.0,5.0,91,0.00,,,0.00,,2013-03-23 12:52:00,
2013-03-23 08:03:00,24.0,22.0,30.20,North,1,4.0,7.0,91,0.00,,,0.00,,2013-03-23 13:03:00,
2013-03-23 08:12:00,24.0,22.0,30.20,North,1,4.0,7.0,91,0.00,,,0.00,,2013-03-23 13:12:00,
2013-03-23 08:23:00,24.0,22.0,30.19,NE,42,4.0,7.0,90,0.00,,,0.00,,2013-03-23 13:23:00,
2013-03-23 08:33:00,24.0,21.0,30.20,NNE,18,4.0,7.0,88,0.00,,,0.00,,2013-03-23 13:33:00,
2013-03-23 08:42:00,24.0,21.0,30.20,NNE,18,4.0,7.0,88,0.00,,,0.00,,2013-03-23 13:42:00,
2013-03-23 08:52:00,25.0,22.0,30.19,NNE,12,3.0,5.0,87,0.00,,,0.00,,2013-03-23 13:52:00,
2013-03-23 09:03:00,25.0,21.0,30.19,NNE,24,4.0,7.0,84,0.00,,,0.00,,2013-03-23 14:03:00,
2013-03-23 09:12:00,25.0,21.0,30.19,NNE,24,4.0,7.0,84,0.00,,,0.00,,2013-03-23 14:12:00,
2013-03-23 09:22:00,25.0,20.0,30.20,NNE,27,4.0,6.0,82,0.00,,,0.00,,2013-03-23 14:22:00,
2013-03-23 09:32:00,25.0,19.0,30.20,NNW,335,3.0,6.0,79,0.00,,,0.00,,2013-03-23 14:32:00,
2013-03-23 09:43:00,25.0,19.0,30.20,NNW,335,3.0,6.0,79,0.00,,,0.00,,2013-03-23 14:43:00,
2013-03-23 09:52:00,25.0,19.0,30.20,NNE,27,2.0,5.0,79,0.00,,,0.00,,2013-03-23 14:52:00,
2013-03-23 10:03:00,25.0,19.0,30.20,NNE,20,3.0,5.0,78,0.00,,,0.00,,2013-03-23 15:03:00,
2013-03-23 10:12:00,25.0,19.0,30.20,NNE,20,3.0,5.0,78,0.00,,,0.00,,2013-03-23 15:12:00,
2013-03-23 10:22:00,26.0,20.0,30.20,NNE,33,3.0,5.0,77,0.00,,,0.00,,2013-03-23 15:22:00,
2013-03-23 10:33:00,27.0,21.0,30.21,NNE,20,2.0,3.0,77,0.00,,,0.00,,2013-03-23 15:33:00,
2013-03-23 10:43:00,27.0,21.0,30.21,NNE,20,2.0,3.0,77,0.00,,,0.00,,2013-03-23 15:43:00,
2013-03-23 10:52:00,27.0,20.0,30.21,NNE,20,2.0,4.0,75,0.00,,,0.00,,2013-03-23 15:52:00,
2013-03-23 11:03:00,27.0,20.0,30.21,NNW,331,2.0,3.0,75,0.00,,,0.00,,2013-03-23 16:03:00,
2013-03-23 11:13:00,27.0,20.0,30.21,NNW,331,2.0,3.0,75,0.00,,,0.00,,2013-03-23 16:13:00,
2013-03-23 11:23:00,27.0,21.0,30.21,North,349,4.0,7.0,77,0.00,,,0.00,,2013-03-23 16:23:00,
2013-03-23 11:33:00,28.0,21.0,30.21,North,354,2.0,6.0,76,0.00,,,0.00,,2013-03-23 16:33:00,
2013-03-23 11:43:00,28.0,21.0,30.21,North,354,2.0,6.0,76,0.00,,,0.00,,2013-03-23 16:43:00,
2013-03-23 11:53:00,28.0,21.0,30.22,North,5,3.0,5.0,75,0.00,,,0.00,,2013-03-23 16:53:00,
2013-03-23 12:02:00,28.0,21.0,30.21,NNE,18,3.0,6.0,76,0.00,,,0.00,,2013-03-23 17:02:00,
2013-03-23 12:12:00,28.0,21.0,30.21,NNE,18,3.0,6.0,76,0.00,,,0.00,,2013-03-23 17:12:00,
2013-03-23 12:22:00,28.0,21.0,30.21,North,351,4.0,7.0,75,0.00,,,0.00,,2013-03-23 17:22:00,
2013-03-23 12:33:00,29.0,21.0,30.21,NNE,25,4.0,6.0,73,0.00,,,0.00,,2013-03-23 17:33:00,
2013-03-23 12:42:00,29.0,21.0,30.21,NNE,25,4.0,6.0,73,0.00,,,0.00,,2013-03-23 17:42:00,
2013-03-23 12:52:00,29.0,21.0,30.22,WNW,301,2.0,7.0,73,0.00,,,0.00,,2013-03-23 17:52:00,
2013-03-23 13:03:00,30.0,22.0,30.22,NNW,329,2.0,4.0,72,0.00,,,0.00,,2013-03-23 18:03:00,
2013-03-23 13:12:00,30.0,22.0,30.22,NNW,329,2.0,4.0,72,0.00,,,0.00,,2013-03-23 18:12:00,
2013-03-23 13:22:00,30.0,22.0,30.22,NW,316,2.0,5.0,72,0.00,,,0.00,,2013-03-23 18:22:00,
2013-03-23 13:32:00,30.0,22.0,30.21,North,351,3.0,5.0,71,0.00,,,0.00,,2013-03-23 18:32:00,
2013-03-23 13:42:00,30.0,22.0,30.21,North,351,3.0,5.0,71,0.00,,,0.00,,2013-03-23 18:42:00,
2013-03-23 13:52:00,30.0,21.0,30.20,North,1,2.0,4.0,69,0.00,,,0.00,,2013-03-23 18:52:00,
2013-03-23 14:03:00,31.0,22.0,30.19,North,8,3.0,5.0,69,0.00,,,0.00,,2013-03-23 19:03:00,
2013-03-23 14:12:00,31.0,22.0,30.19,North,8,3.0,5.0,69,0.00,,,0.00,,2013-03-23 19:12:00,
2013-03-23 14:22:00,31.0,22.0,30.18,NNE,31,4.0,8.0,69,0.00,,,0.00,,2013-03-23 19:22:00,
2013-03-23 14:32:00,31.0,22.0,30.17,NNW,332,5.0,8.0,70,0.00,,,0.00,,2013-03-23 19:32:00,
2013-03-23 14:42:00,31.0,22.0,30.17,NNW,332,5.0,8.0,70,0.00,,,0.00,,2013-03-23 19:42:00,
2013-03-23 14:52:00,32.0,23.0,30.16,North,5,5.0,8.0,70,0.00,,,0.00,,2013-03-23 19:52:00,
2013-03-23 15:02:00,32.0,24.0,30.16,NE,37,4.0,9.0,72,0.00,,,0.00,,2013-03-23 20:02:00,
2013-03-23 15:13:00,32.0,24.0,30.16,NE,37,4.0,9.0,72,0.00,,,0.00,,2013-03-23 20:13:00,
2013-03-23 15:22:00,33.0,24.0,30.16,North,355,3.0,8.0,69,0.00,,,0.00,,2013-03-23 20:22:00,
2013-03-23 15:32:00,33.0,24.0,30.16,North,4,4.0,7.0,68,0.00,,,0.00,,2013-03-23 20:32:00,
2013-03-23 15:42:00,33.0,24.0,30.16,North,4,4.0,7.0,68,0.00,,,0.00,,2013-03-23 20:42:00,
2013-03-23 15:52:00,33.0,24.0,30.15,North,350,5.0,9.0,70,0.00,,,0.00,,2013-03-23 20:52:00,
2013-03-23 16:02:00,32.0,23.0,30.15,NE,51,4.0,7.0,70,0.00,,,0.00,,2013-03-23 21:02:00,
2013-03-23 16:12:00,32.0,23.0,30.15,NE,51,4.0,7.0,70,0.00,,,0.00,,2013-03-23 21:12:00,
2013-03-23 16:22:00,32.0,23.0,30.15,NW,324,3.0,6.0,69,0.00,,,0.00,,2013-03-23 21:22:00,
2013-03-23 16:33:00,33.0,25.0,30.14,NE,41,3.0,8.0,71,0.00,,,0.00,,2013-03-23 21:33:00,
2013-03-23 16:43:00,33.0,25.0,30.14,NE,41,3.0,8.0,71,0.00,,,0.00,,2013-03-23 21:43:00,
2013-03-23 16:53:00,32.0,23.0,30.14,ENE,57,2.0,5.0,70,0.00,,,0.00,,2013-03-23 21:53:00,
2013-03-23 17:03:00,32.0,24.0,30.14,NE,54,3.0,7.0,72,0.00,,,0.00,,2013-03-23 22:03:00,
2013-03-23 17:13:00,32.0,24.0,30.14,NE,54,3.0,7.0,72,0.00,,,0.00,,2013-03-23 22:13:00,
2013-03-23 17:23:00,32.0,24.0,30.14,NNE,22,3.0,8.0,72,0.00,,,0.00,,2013-03-23 22:23:00,
2013-03-23 17:33:00,32.0,24.0,30.15,NNE,23,4.0,7.0,72,0.00,,,0.00,,2013-03-23 22:33:00,
2013-03-23 17:42:00,32.0,24.0,30.15,NNE,23,4.0,7.0,72,0.00,,,0.00,,2013-03-23 22:42:00,
2013-03-23 17:52:00,32.0,24.0,30.14,North,8,3.0,6.0,73,0.00,,,0.00,,2013-03-23 22:52:00,
2013-03-23 18:02:00,32.0,24.0,30.14,NNE,12,4.0,6.0,73,0.00,,,0.00,,2013-03-23 23:02:00,
2013-03-23 18:13:00,32.0,24.0,30.14,NNE,12,4.0,6.0,73,0.00,,,0.00,,2013-03-23 23:13:00,
2013-03-23 18:23:00,32.0,25.0,30.14,NNE,22,3.0,6.0,75,0.00,,,0.00,,2013-03-23 23:23:00,
2013-03-23 18:33:00,32.0,24.0,30.14,NNW,348,5.0,8.0,73,0.00,,,0.00,,2013-03-23 23:33:00,
2013-03-23 18:43:00,32.0,24.0,30.14,NNW,348,5.0,8.0,73,0.00,,,0.00,,2013-03-23 23:43:00,
2013-03-23 18:52:00,31.0,24.0,30.15,North,8,5.0,7.0,75,0.00,,,0.00,,2013-03-23 23:52:00,
2013-03-23 19:02:00,31.0,24.0,30.15,North,8,5.0,7.0,75,0.00,,,0.00,,2013-03-24 00:02:00,
2013-03-23 19:12:00,31.0,24.0,30.15,North,8,5.0,7.0,75,0.00,,,0.00,,2013-03-24 00:12:00,
2013-03-23 19:22:00,31.0,25.0,30.15,NNW,340,5.0,9.0,78,0.00,,,0.00,,2013-03-24 00:22:00,
2013-03-23 19:32:00,31.0,25.0,30.15,NNW,347,5.0,10.0,77,0.00,,,0.00,,2013-03-24 00:32:00,
2013-03-23 19:42:00,31.0,25.0,30.15,NNW,347,5.0,10.0,77,0.00,,,0.00,,2013-03-24 00:42:00,
2013-03-23 19:52:00,31.0,25.0,30.15,NW,323,4.0,8.0,77,0.00,,,0.00,,2013-03-24 00:52:00,
2013-03-23 20:02:00,30.0,24.0,30.16,North,350,4.0,10.0,78,0.00,,,0.00,,2013-03-24 01:02:00,
2013-03-23 20:12:00,30.0,24.0,30.16,North,350,4.0,10.0,78,0.00,,,0.00,,2013-03-24 01:12:00,
2013-03-23 20:22:00,29.0,23.0,30.16,NNW,338,5.0,10.0,79,0.00,,,0.00,,2013-03-24 01:22:00,
2013-03-23 20:32:00,29.0,24.0,30.17,NNW,346,5.0,11.0,80,0.00,,,0.00,,2013-03-24 01:32:00,
2013-03-23 20:42:00,29.0,24.0,30.17,NNW,346,5.0,11.0,80,0.00,,,0.00,,2013-03-24 01:42:00,
2013-03-23 20:52:00,29.0,23.0,30.17,NNW,338,9.0,13.0,79,0.00,,,0.00,,2013-03-24 01:52:00,
2013-03-23 21:03:00,29.0,23.0,30.17,North,5,7.0,11.0,79,0.00,,,0.00,,2013-03-24 02:03:00,
2013-03-23 21:12:00,29.0,23.0,30.17,North,5,7.0,11.0,79,0.00,,,0.00,,2013-03-24 02:12:00,
2013-03-23 21:22:00,29.0,23.0,30.17,NNE,16,8.0,13.0,79,0.00,,,0.00,,2013-03-24 02:22:00,
2013-03-23 21:32:00,28.0,22.0,30.17,NNE,25,8.0,13.0,79,0.00,,,0.00,,2013-03-24 02:32:00,
2013-03-23 21:42:00,28.0,22.0,30.17,NNE,25,8.0,13.0,79,0.00,,,0.00,,2013-03-24 02:42:00,
2013-03-23 21:52:00,28.0,22.0,30.18,NE,51,6.0,12.0,79,0.00,,,0.00,,2013-03-24 02:52:00,
2013-03-23 22:02:00,28.0,23.0,30.18,NW,326,8.0,12.0,80,0.00,,,0.00,,2013-03-24 03:02:00,
2013-03-23 22:12:00,28.0,23.0,30.18,NW,326,8.0,12.0,80,0.00,,,0.00,,2013-03-24 03:12:00,
2013-03-23 22:22:00,28.0,23.0,30.18,NW,308,8.0,11.0,81,0.00,,,0.00,,2013-03-24 03:22:00,
2013-03-23 22:33:00,28.0,23.0,30.18,NNW,340,7.0,12.0,80,0.00,,,0.00,,2013-03-24 03:33:00,
2013-03-23 22:42:00,28.0,23.0,30.18,NNW,340,7.0,12.0,80,0.00,,,0.00,,2013-03-24 03:42:00,
2013-03-23 22:52:00,28.0,23.0,30.18,North,1,8.0,11.0,80,0.00,,,0.00,,2013-03-24 03:52:00,
2013-03-23 23:03:00,27.0,21.0,30.18,NNW,342,8.0,12.0,78,0.00,,,0.00,,2013-03-24 04:03:00,
2013-03-23 23:13:00,27.0,21.0,30.18,NNW,342,8.0,12.0,78,0.00,,,0.00,,2013-03-24 04:13:00,
2013-03-23 23:22:00,27.0,21.0,30.18,NNW,342,7.0,12.0,78,0.00,,,0.00,,2013-03-24 04:22:00,
2013-03-23 23:33:00,27.0,21.0,30.18,North,354,7.0,11.0,78,0.00,,,0.00,,2013-03-24 04:33:00,
2013-03-23 23:43:00,27.0,21.0,30.18,North,354,7.0,11.0,78,0.00,,,0.00,,2013-03-24 04:43:00,
2013-03-23 23:52:00,27.0,21.0,30.17,North,6,6.0,11.0,79,0.00,,,0.00,,2013-03-24 04:52:00,